Regional Weather Roundup
Issued by NWS

Home | Current Version | Previous Version | Text Only | Print | Product List | Glossary On
Versions: 1 2 3 4 5 6 7 8 9 10 11 12 13 14 15 16 17 18 19 20 21 22 23 24 25 26 27 28 29 30 31 32 33 34 35 36 37 38 39 40 41 42 43 44 45 46 47 48 49 50
000
ASUS43 KTOP 160659
RWRKS

WEATHER ROUNDUP FOR KANSAS
NATIONAL WEATHER SERVICE GOODLAND KS
200 AM CDT WED APR 16 2014

NOTE:  "FAIR" INDICATES FEW OR NO CLOUDS BELOW 12,000 FEET WITH NO
SIGNIFICANT WEATHER AND/OR OBSTRUCTIONS TO VISIBILITY.

KSZ001>006-013>018-027>032-041>047-160800-
NORTHWEST KANSAS

CITY           SKY/WX    TMP DP  RH WIND       PRES   REMARKS
GOODLAND       MOCLDY    46  25  43 S20       29.62F
HAYS           CLEAR     50  18  27 S20G26    29.74F
HILL CITY      CLEAR     50  17  27 S17G25    29.69F
RUSSELL        CLEAR     52  17  25 S30G40    29.74F
$$

KSZ061>065-074>080-084>089-160800-
SOUTHWEST KANSAS

CITY           SKY/WX    TMP DP  RH WIND       PRES   REMARKS
DODGE CITY     CLEAR     48  15  26 S23G32    29.77F
ELKHART          N/A     48  17  29 S16         N/A
GARDEN CITY    CLEAR     46  18  32 SE16      29.71F
GREAT BEND     PTCLDY    50  16  25 S26       29.77F
LIBERAL        CLEAR     52  14  22 S22       29.74F
$$

KSZ066>073-081>083-090>101-160800-
SOUTHEAST KANSAS

CITY           SKY/WX    TMP DP  RH WIND       PRES   REMARKS
CHANUTE        MOCLDY    47  28  47 SE14      30.01F
COFFEYVILLE    PTCLDY    45  29  53 S12       30.03F
HUTCHINSON     PTCLDY    50  18  28 S20       29.87F
MEDICINE LODGE   N/A     48  18  30 S13G21    29.87F
NEWTON         PTCLDY    46  18  31 S13       29.93S
PARSONS        PTCLDY    47  27  45 S9        30.03F
WICHITA INTL   MOCLDY    49  22  34 S18       29.91F
WICHITA JABRA  PTCLDY    49  23  36 S15G26    29.91F
WINFIELD       CLEAR     49  23  36 S20       29.95F
$$

KSZ007>012-019>026-033>040-048>060-102>105-160800-
NORTHEAST KANSAS

CITY           SKY/WX    TMP DP  RH WIND       PRES   REMARKS
CONCORDIA      CLEAR     48  17  29 S21       29.79F
EMPORIA        MOCLDY    47  27  45 S16G25    29.95R
LAWRENCE       PTCLDY    46  29  51 SE15      29.98F
MANHATTAN      CLEAR     49  27  42 S15G25    29.89F
OLATHE IND     PTCLDY    44  27  51 S20G29    30.00F
OLATHE EXE     PTCLDY    43  27  53 S16       30.00S
SALINA         PTCLDY    51  17  26 S17G28    29.84F
TOPEKA BILLARD PTCLDY    48  28  46 S17G23    29.96S
TOPEKA FORBES  PTCLDY    47  28  47 S17       29.94F
$$



USA.gov is the U.S. government's official web portal to all federal, state and local government web resources and services.